contact:dominique.lefevre@mio.osupytheas.fr, maurice.libes@osupytheas.fr, didier.mallarino@osupytheas.fr
Project:EMSO http://www.emso-fr.org/EMSO-France
Depth: 2436.0 m
Title:EMSO Ligure Ouest : Data MII capteur AQUADOPP
Date,Latitude,Longitude,X_East,Y_North,Z_Up,Amplitude_X,Amplitude_Y,Amplitude_Z,Batterie,SoundSpeed,Heading,Pitch,Roll,Pressure,TIS,Speed,Direction
, degrees North, degrees East, m.s-1, m.s-1,m.s-1, 1, 1, 1, Volt, m.s-1, degree, degree, degree, dbar, degree_C, m.s-1, degree
2021-07-12T00:04:03,42.805,6.029,-0.02,0.0,0.0,100.0,102.0,100.0,13.4,1505.2,328.4,-0.8,1.8,2470.558,13.29,0.02,270.0
2021-07-12T00:07:03,42.805,6.029,-0.019,0.003,-0.023,101.0,101.0,101.0,13.4,1505.2,326.4,-0.7,1.9,2470.544,13.29,0.019,279.0
2021-07-12T00:10:03,42.805,6.029,-0.026,0.008,-0.007,100.0,102.0,100.0,13.4,1505.2,326.3,-0.7,1.9,2470.538,13.29,0.027,287.1
2021-07-12T00:13:03,42.805,6.029,-0.013,0.006,-0.001,100.0,103.0,100.0,13.4,1505.2,326.6,-0.8,1.8,2470.56,13.29,0.014,294.8
2021-07-12T00:16:03,42.805,6.029,-0.024,0.003,0.001,100.0,103.0,100.0,13.3,1505.2,325.6,-0.8,1.8,2470.573,13.29,0.024,277.1
2021-07-12T00:19:03,42.805,6.029,-0.027,0.007,0.006,100.0,102.0,99.0,13.4,1505.2,326.3,-0.8,1.8,2470.517,13.29,0.027,284.5
2021-07-12T00:22:03,42.805,6.029,-0.032,0.025,0.008,101.0,101.0,100.0,13.4,1505.2,326.1,-0.7,1.9,2470.496,13.29,0.04,308.0
2021-07-12T00:25:03,42.805,6.029,0.0,-0.011,-0.028,100.0,100.0,100.0,13.4,1505.2,328.4,-0.8,1.8,2470.535,13.29,0.011,180.0
2021-07-12T00:28:03,42.805,6.029,0.0,0.003,-0.01,100.0,103.0,99.0,13.4,1505.2,330.2,-0.7,1.8,2470.514,13.29,0.003,0.0
2021-07-12T00:31:03,42.805,6.029,-0.006,-0.024,-0.019,101.0,100.0,100.0,13.4,1505.2,324.8,-0.8,1.8,2470.51,13.29,0.024,194.0
2021-07-12T00:34:03,42.805,6.029,-0.021,-0.012,-0.023,101.0,102.0,99.0,13.3,1505.2,327.4,-0.8,1.8,2470.523,13.29,0.024,240.3
2021-07-12T00:37:03,42.805,6.029,-0.002,-0.004,-0.001,100.0,100.0,100.0,13.4,1505.2,328.0,-0.8,1.8,2470.52,13.29,0.004,206.6
2021-07-12T00:40:03,42.805,6.029,-0.027,0.004,-0.016,100.0,102.0,100.0,13.4,1505.2,326.8,-0.7,1.8,2470.507,13.29,0.027,278.4
2021-07-12T00:43:03,42.805,6.029,-0.035,-0.005,-0.008,100.0,101.0,100.0,13.4,1505.2,327.1,-0.8,1.8,2470.538,13.29,0.035,261.9
2021-07-12T00:46:03,42.805,6.029,0.0,-0.008,-0.01,99.0,100.0,100.0,13.4,1505.2,330.1,-0.8,1.8,2470.5,13.29,0.008,180.0
2021-07-12T00:49:03,42.805,6.029,-0.01,-0.006,0.008,101.0,104.0,99.0,13.4,1505.2,329.0,-0.8,1.8,2470.504,13.29,0.011,239.0
2021-07-12T00:52:03,42.805,6.029,-0.016,0.014,-0.007,101.0,99.0,99.0,13.4,1505.2,329.6,-0.8,1.8,2470.489,13.29,0.021,311.2
2021-07-12T00:55:03,42.805,6.029,-0.017,-0.003,-0.009,100.0,101.0,101.0,13.4,1505.2,328.2,-0.8,1.8,2470.466,13.29,0.017,260.0
2021-07-12T00:58:03,42.805,6.029,-0.026,-0.016,-0.012,102.0,101.0,100.0,13.4,1505.2,326.2,-0.7,1.8,2470.465,13.29,0.03,238.4
2021-07-12T01:04:03,42.805,6.029,-0.028,0.021,-0.015,99.0,103.0,100.0,13.3,1505.2,326.1,-0.7,1.8,2470.515,13.29,0.035,306.9
2021-07-12T01:07:03,42.805,6.029,0.0,-0.026,-0.038,100.0,100.0,99.0,13.4,1505.2,328.5,-0.7,1.8,2470.513,13.29,0.026,180.0
2021-07-12T01:10:03,42.805,6.029,-0.002,-0.028,-0.016,101.0,100.0,99.0,13.4,1505.2,328.7,-0.8,1.8,2470.524,13.29,0.028,184.1
2021-07-12T01:13:03,42.805,6.029,-0.013,-0.016,-0.048,101.0,101.0,100.0,13.4,1505.2,327.8,-0.8,1.8,2470.514,13.29,0.02,219.1
2021-07-12T01:16:03,42.805,6.029,-0.027,0.003,-0.001,98.0,103.0,99.0,13.4,1505.2,325.5,-0.8,1.9,2470.509,13.29,0.027,276.3
2021-07-12T01:19:03,42.805,6.029,-0.031,-0.004,-0.028,102.0,101.0,99.0,13.3,1505.2,329.6,-0.8,1.8,2470.5,13.29,0.031,262.7
2021-07-12T01:22:03,42.805,6.029,-0.002,-0.023,-0.025,100.0,102.0,100.0,13.4,1505.2,327.1,-0.7,1.8,2470.494,13.29,0.023,185.0
2021-07-12T01:25:03,42.805,6.029,-0.023,0.0,-0.014,101.0,101.0,101.0,13.4,1505.2,328.0,-0.7,1.8,2470.472,13.29,0.023,270.0
2021-07-12T01:28:03,42.805,6.029,-0.021,-0.001,-0.007,100.0,102.0,101.0,13.3,1505.2,327.2,-0.8,1.8,2470.479,13.29,0.021,267.3
2021-07-12T01:31:03,42.805,6.029,-0.016,0.0,-0.022,100.0,100.0,101.0,13.4,1505.2,327.6,-0.7,1.8,2470.468,13.29,0.016,270.0
2021-07-12T01:34:03,42.805,6.029,-0.038,-0.006,-0.028,99.0,100.0,100.0,13.4,1505.2,329.5,-0.8,1.8,2470.431,13.29,0.038,261.0
2021-07-12T01:37:03,42.805,6.029,-0.017,0.01,-0.006,100.0,101.0,100.0,13.4,1505.2,329.5,-0.8,1.8,2470.465,13.29,0.019,300.5
2021-07-12T01:40:03,42.805,6.029,-0.003,-0.016,0.0,101.0,101.0,100.0,13.4,1505.2,329.1,-0.7,1.8,2470.434,13.29,0.016,190.6
2021-07-12T01:43:03,42.805,6.029,-0.016,-0.012,-0.008,101.0,102.0,100.0,13.4,1505.2,328.6,-0.8,1.8,2470.44,13.29,0.02,233.1
2021-07-12T01:46:03,42.805,6.029,-0.006,-0.015,-0.006,100.0,102.0,100.0,13.4,1505.2,330.3,-0.8,1.9,2470.422,13.29,0.016,201.8
2021-07-12T01:49:03,42.805,6.029,-0.01,-0.018,-0.01,99.0,101.0,101.0,13.3,1505.2,328.4,-0.7,1.8,2470.457,13.29,0.02,209.1
2021-07-12T01:52:03,42.805,6.029,0.004,-0.009,0.012,99.0,101.0,100.0,13.4,1505.2,327.4,-0.8,1.8,2470.421,13.29,0.009,156.0
2021-07-12T01:55:03,42.805,6.029,0.011,0.01,0.027,101.0,100.0,100.0,13.4,1505.2,327.6,-0.7,1.8,2470.46,13.29,0.014,47.7
2021-07-12T01:58:03,42.805,6.029,0.003,-0.012,-0.027,100.0,101.0,100.0,13.4,1505.2,330.3,-0.7,1.8,2470.434,13.29,0.012,166.0
2021-07-12T02:04:03,42.805,6.029,-0.012,-0.007,-0.035,100.0,102.0,100.0,13.3,1505.2,330.1,-0.8,1.8,2470.505,13.29,0.013,239.7
2021-07-12T02:07:03,42.805,6.029,-0.017,0.0,-0.002,100.0,100.0,102.0,13.4,1505.2,327.9,-0.8,1.8,2470.457,13.29,0.017,270.0
2021-07-12T02:10:03,42.805,6.029,0.046,-0.003,0.018,100.0,102.0,99.0,13.4,1505.2,326.4,-0.8,1.8,2470.486,13.29,0.046,93.7
2021-07-12T02:13:03,42.805,6.029,-0.014,0.006,-0.035,102.0,101.0,102.0,13.4,1505.2,327.4,-0.7,1.8,2470.469,13.29,0.015,293.2
2021-07-12T02:16:03,42.805,6.029,-0.028,0.019,-0.006,104.0,100.0,100.0,13.4,1505.2,328.0,-0.8,1.8,2470.438,13.29,0.033,304.2
2021-07-12T02:19:03,42.805,6.029,0.008,-0.017,0.004,100.0,102.0,103.0,13.4,1505.2,325.6,-0.8,1.8,2470.487,13.29,0.018,154.8
2021-07-12T02:22:03,42.805,6.029,-0.017,0.01,-0.023,99.0,100.0,100.0,13.4,1505.2,327.4,-0.8,1.8,2470.443,13.29,0.019,300.5
2021-07-12T02:25:03,42.805,6.029,0.001,-0.008,-0.009,101.0,102.0,101.0,13.4,1505.2,326.8,-0.7,1.8,2470.455,13.29,0.008,172.9
2021-07-12T02:28:03,42.805,6.029,-0.022,0.0,0.008,101.0,100.0,100.0,13.4,1505.2,327.6,-0.7,1.8,2470.415,13.29,0.022,270.0
2021-07-12T02:31:03,42.805,6.029,-0.033,-0.013,-0.037,103.0,99.0,101.0,13.4,1505.2,326.0,-0.8,1.8,2470.43,13.29,0.035,248.5
2021-07-12T02:34:03,42.805,6.029,0.001,0.018,-0.004,101.0,101.0,100.0,13.4,1505.2,326.5,-0.8,1.8,2470.437,13.29,0.018,3.2
2021-07-12T02:37:03,42.805,6.029,-0.001,0.009,-0.007,99.0,101.0,100.0,13.4,1505.2,324.9,-0.7,1.8,2470.402,13.29,0.009,353.7
2021-07-12T02:40:03,42.805,6.029,-0.004,0.0,0.005,101.0,101.0,99.0,13.4,1505.2,326.6,-0.7,1.8,2470.454,13.29,0.004,270.0
2021-07-12T02:43:03,42.805,6.029,-0.018,0.0,0.023,101.0,101.0,99.0,13.3,1505.2,330.4,-0.7,1.9,2470.43,13.29,0.018,270.0
2021-07-12T02:46:03,42.805,6.029,0.004,-0.008,-0.007,99.0,101.0,99.0,13.3,1505.2,327.7,-0.8,1.8,2470.438,13.29,0.008,153.4
2021-07-12T02:49:03,42.805,6.029,-0.007,0.01,0.016,100.0,102.0,101.0,13.4,1505.2,327.2,-0.8,1.8,2470.405,13.29,0.012,325.0
2021-07-12T02:52:03,42.805,6.029,-0.007,-0.013,-0.017,100.0,102.0,100.0,13.4,1505.2,324.9,-0.8,1.8,2470.441,13.29,0.014,208.3
2021-07-12T02:55:03,42.805,6.029,-0.013,-0.012,-0.047,99.0,103.0,100.0,13.4,1505.2,327.5,-0.8,1.8,2470.392,13.29,0.017,227.3
2021-07-12T02:58:03,42.805,6.029,-0.004,0.011,0.013,101.0,101.0,101.0,13.4,1505.2,328.7,-0.8,1.8,2470.404,13.29,0.011,340.0
2021-07-12T03:04:03,42.805,6.029,-0.006,0.009,0.0,100.0,102.0,100.0,13.4,1505.2,329.1,-0.7,1.8,2470.46,13.29,0.01,326.3
2021-07-12T03:07:03,42.805,6.029,-0.013,-0.015,0.01,101.0,102.0,100.0,13.4,1505.2,329.3,-0.8,1.8,2470.441,13.29,0.019,220.9
2021-07-12T03:10:03,42.805,6.029,0.001,0.004,-0.021,100.0,100.0,101.0,13.4,1505.2,326.4,-0.8,1.9,2470.428,13.29,0.004,14.0
2021-07-12T03:13:03,42.805,6.029,-0.021,-0.003,-0.036,101.0,101.0,100.0,13.3,1505.2,328.5,-0.7,1.8,2470.433,13.29,0.021,261.9
2021-07-12T03:16:03,42.805,6.029,-0.003,0.011,0.007,101.0,102.0,101.0,13.4,1505.2,327.7,-0.8,1.8,2470.413,13.29,0.011,344.7
2021-07-12T03:19:03,42.805,6.029,-0.012,0.0,0.001,100.0,102.0,99.0,13.4,1505.2,327.5,-0.7,1.8,2470.459,13.29,0.012,270.0
2021-07-12T03:22:03,42.805,6.029,-0.008,-0.005,-0.007,102.0,101.0,100.0,13.3,1505.2,328.1,-0.8,1.8,2470.37,13.29,0.009,238.0
2021-07-12T03:25:03,42.805,6.029,-0.017,0.005,-0.018,101.0,100.0,99.0,13.3,1505.2,326.6,-0.8,1.8,2470.404,13.29,0.017,286.4
2021-07-12T03:28:03,42.805,6.029,-0.023,-0.001,0.006,100.0,102.0,101.0,13.4,1505.2,326.8,-0.7,1.9,2470.397,13.29,0.023,267.5
2021-07-12T03:31:03,42.805,6.029,-0.012,-0.005,-0.034,100.0,101.0,99.0,13.4,1505.2,326.4,-0.7,1.9,2470.384,13.29,0.013,247.4
2021-07-12T03:34:03,42.805,6.029,-0.022,0.008,0.006,100.0,100.0,100.0,13.4,1505.2,328.1,-0.8,1.8,2470.384,13.29,0.023,290.0
2021-07-12T03:37:03,42.805,6.029,-0.016,-0.009,-0.003,99.0,102.0,100.0,13.3,1505.2,327.7,-0.8,1.8,2470.387,13.29,0.018,240.6
2021-07-12T03:40:03,42.805,6.029,0.003,-0.011,0.01,101.0,99.0,100.0,13.4,1505.2,328.4,-0.8,1.8,2470.384,13.29,0.011,164.7
2021-07-12T03:43:03,42.805,6.029,-0.004,-0.01,0.0,102.0,100.0,99.0,13.4,1505.2,327.2,-0.8,1.8,2470.401,13.29,0.01,201.8
2021-07-12T03:46:03,42.805,6.029,0.004,-0.015,0.004,98.0,101.0,100.0,13.4,1505.2,330.3,-0.7,1.8,2470.396,13.29,0.015,165.1
2021-07-12T03:49:03,42.805,6.029,0.005,-0.005,0.001,103.0,100.0,100.0,13.4,1505.2,326.5,-0.7,1.8,2470.418,13.29,0.007,135.0
2021-07-12T03:52:03,42.805,6.029,-0.017,-0.003,-0.007,101.0,101.0,99.0,13.4,1505.2,326.3,-0.7,1.8,2470.412,13.29,0.017,260.0
2021-07-12T03:55:03,42.805,6.029,-0.004,-0.014,-0.023,99.0,101.0,100.0,13.3,1505.2,327.0,-0.8,1.8,2470.431,13.29,0.014,195.9
2021-07-12T03:58:03,42.805,6.029,-0.007,-0.004,0.003,100.0,102.0,98.0,13.4,1505.2,328.7,-0.8,1.8,2470.406,13.29,0.008,240.3
2021-07-12T04:04:03,42.805,6.029,0.001,-0.011,-0.007,100.0,100.0,99.0,13.4,1505.2,328.4,-0.8,1.8,2470.409,13.29,0.011,174.8
2021-07-12T04:07:03,42.805,6.029,-0.015,-0.005,-0.009,102.0,101.0,98.0,13.3,1505.2,329.0,-0.7,1.8,2470.42,13.29,0.015,251.6
2021-07-12T04:10:03,42.805,6.029,-0.017,0.002,-0.013,100.0,101.0,100.0,13.3,1505.2,326.5,-0.7,1.8,2470.464,13.29,0.017,276.7
2021-07-12T04:13:03,42.805,6.029,-0.021,-0.009,-0.016,100.0,101.0,99.0,13.4,1505.2,329.6,-0.8,1.8,2470.41,13.29,0.022,246.8
2021-07-12T04:16:03,42.805,6.029,-0.009,-0.001,0.0,101.0,100.0,100.0,13.4,1505.2,326.3,-0.7,1.8,2470.389,13.29,0.009,263.7
2021-07-12T04:19:03,42.805,6.029,-0.011,-0.006,-0.032,100.0,100.0,99.0,13.4,1505.2,325.1,-0.8,1.8,2470.42,13.29,0.012,241.4
2021-07-12T04:22:03,42.805,6.029,-0.026,-0.004,-0.019,103.0,101.0,100.0,13.4,1505.2,328.5,-0.8,1.8,2470.431,13.29,0.026,261.3
2021-07-12T04:25:03,42.805,6.029,-0.021,0.005,0.011,100.0,102.0,101.0,13.4,1505.2,325.2,-0.7,1.8,2470.418,13.29,0.021,283.4
2021-07-12T04:28:03,42.805,6.029,-0.002,-0.003,-0.002,100.0,102.0,99.0,13.3,1505.2,326.6,-0.8,1.8,2470.443,13.29,0.003,213.7
2021-07-12T04:31:03,42.805,6.029,-0.013,0.003,-0.014,101.0,102.0,99.0,13.4,1505.2,326.5,-0.8,1.8,2470.409,13.29,0.013,283.0
2021-07-12T04:34:03,42.805,6.029,-0.007,-0.007,-0.038,100.0,101.0,99.0,13.4,1505.2,326.7,-0.8,1.8,2470.407,13.29,0.009,225.0
2021-07-12T04:37:03,42.805,6.029,-0.016,0.002,-0.028,99.0,101.0,100.0,13.4,1505.2,328.9,-0.7,1.8,2470.429,13.29,0.016,277.1
2021-07-12T04:40:03,42.805,6.029,-0.014,0.002,-0.003,101.0,102.0,98.0,13.4,1505.2,327.7,-0.8,1.8,2470.431,13.29,0.014,278.1
2021-07-12T04:43:03,42.805,6.029,-0.009,-0.011,-0.004,99.0,101.0,100.0,13.3,1505.2,328.3,-0.7,1.8,2470.397,13.29,0.014,219.3
2021-07-12T04:46:03,42.805,6.029,-0.028,-0.03,-0.038,102.0,101.0,100.0,13.3,1505.2,328.4,-0.8,1.8,2470.42,13.29,0.041,223.0
2021-07-12T04:49:03,42.805,6.029,-0.006,-0.026,-0.038,101.0,99.0,101.0,13.4,1505.2,328.5,-0.8,1.8,2470.436,13.29,0.026,193.0
2021-07-12T04:52:03,42.805,6.029,-0.018,-0.001,-0.002,101.0,100.0,100.0,13.4,1505.2,329.1,-0.7,1.8,2470.465,13.29,0.018,266.8
2021-07-12T04:55:03,42.805,6.029,-0.006,0.011,0.008,101.0,101.0,100.0,13.4,1505.2,328.2,-0.8,1.8,2470.428,13.29,0.012,331.4
2021-07-12T04:58:03,42.805,6.029,-0.011,0.001,0.006,99.0,101.0,100.0,13.3,1505.2,328.8,-0.8,1.8,2470.392,13.29,0.011,275.2
2021-07-12T05:04:03,42.805,6.029,0.0,0.014,-0.004,101.0,101.0,100.0,13.3,1505.2,325.6,-0.7,1.9,2470.497,13.29,0.014,0.0
2021-07-12T05:07:03,42.805,6.029,-0.013,-0.015,-0.013,101.0,100.0,100.0,13.3,1505.2,327.4,-0.8,1.8,2470.464,13.29,0.019,220.9
2021-07-12T05:10:03,42.805,6.029,-0.008,0.023,0.029,98.0,100.0,102.0,13.4,1505.2,327.1,-0.8,1.8,2470.468,13.29,0.024,340.8
2021-07-12T05:13:03,42.805,6.029,-0.003,0.001,0.013,101.0,101.0,100.0,13.4,1505.2,327.1,-0.8,1.8,2470.481,13.29,0.003,288.4
2021-07-12T05:16:03,42.805,6.029,-0.006,-0.01,-0.009,100.0,103.0,99.0,13.4,1505.2,328.8,-0.8,1.8,2470.523,13.29,0.011,211.0
2021-07-12T05:19:03,42.805,6.029,0.009,-0.003,-0.009,101.0,102.0,99.0,13.4,1505.2,329.4,-0.8,1.8,2470.464,13.29,0.009,108.4
2021-07-12T05:22:03,42.805,6.029,-0.005,0.0,0.003,99.0,102.0,100.0,13.4,1505.2,328.4,-0.8,1.8,2470.488,13.29,0.005,270.0
2021-07-12T05:25:03,42.805,6.029,-0.003,0.004,0.012,100.0,101.0,99.0,13.3,1505.2,327.3,-0.7,1.8,2470.484,13.29,0.005,323.1
2021-07-12T05:28:03,42.805,6.029,0.013,-0.006,0.009,100.0,102.0,101.0,13.3,1505.2,328.8,-0.8,1.8,2470.464,13.29,0.014,114.8
2021-07-12T05:31:03,42.805,6.029,0.0,0.001,0.0,100.0,101.0,100.0,13.4,1505.2,328.5,-0.8,1.8,2470.491,13.29,0.001,0.0
2021-07-12T05:34:03,42.805,6.029,-0.015,-0.015,-0.01,101.0,101.0,100.0,13.4,1505.2,325.2,-0.8,1.8,2470.449,13.29,0.021,225.0
2021-07-12T05:37:03,42.805,6.029,-0.003,-0.007,0.013,100.0,100.0,101.0,13.4,1505.2,326.7,-0.8,1.8,2470.442,13.29,0.007,203.2
2021-07-12T05:40:03,42.805,6.029,-0.005,-0.005,-0.036,101.0,100.0,100.0,13.3,1505.2,326.5,-0.8,1.8,2470.442,13.29,0.007,225.0
2021-07-12T05:43:03,42.805,6.029,0.005,-0.022,-0.049,103.0,100.0,100.0,13.4,1505.2,325.4,-0.8,1.8,2470.462,13.29,0.022,167.2
2021-07-12T05:46:03,42.805,6.029,0.016,0.013,-0.02,102.0,100.0,101.0,13.3,1505.2,328.5,-0.8,1.8,2470.447,13.29,0.02,50.9
2021-07-12T05:49:03,42.805,6.029,0.019,0.007,0.005,100.0,101.0,100.0,13.4,1505.2,326.5,-0.8,1.8,2470.452,13.29,0.02,69.8
2021-07-12T05:52:03,42.805,6.029,-0.019,0.0,-0.002,102.0,100.0,99.0,13.4,1505.2,326.6,-0.8,1.8,2470.463,13.29,0.019,270.0
2021-07-12T05:55:03,42.805,6.029,-0.04,0.007,-0.007,101.0,101.0,99.0,13.4,1505.2,328.4,-0.8,1.8,2470.458,13.29,0.04,279.9
2021-07-12T05:58:03,42.805,6.029,0.006,-0.006,-0.014,101.0,101.0,100.0,13.4,1505.2,326.9,-0.7,1.8,2470.465,13.29,0.008,135.0
2021-07-12T06:04:03,42.805,6.029,0.004,-0.016,-0.007,100.0,102.0,99.0,13.3,1505.2,328.0,-0.8,1.8,2470.499,13.29,0.016,166.0
2021-07-12T06:07:03,42.805,6.029,-0.026,0.002,-0.017,100.0,100.0,100.0,13.3,1505.2,328.8,-0.8,1.8,2470.49,13.29,0.026,274.4
2021-07-12T06:10:03,42.805,6.029,-0.023,0.005,0.003,102.0,101.0,100.0,13.4,1505.2,325.0,-0.8,1.8,2470.474,13.29,0.023,282.3
2021-07-12T06:13:03,42.805,6.029,0.001,0.0,-0.028,100.0,107.0,100.0,13.4,1505.2,325.4,-0.8,1.8,2470.473,13.29,0.001,90.0
2021-07-12T06:16:03,42.805,6.029,0.019,-0.023,-0.009,100.0,100.0,100.0,13.3,1505.2,327.7,-0.8,1.8,2470.464,13.29,0.029,140.4
2021-07-12T06:19:03,42.805,6.029,-0.004,-0.027,-0.026,101.0,100.0,100.0,13.3,1505.2,325.5,-0.7,1.8,2470.484,13.29,0.027,188.4
2021-07-12T06:22:03,42.805,6.029,0.0,0.001,-0.02,102.0,103.0,99.0,13.3,1505.2,330.5,-0.8,1.8,2470.479,13.29,0.001,0.0
2021-07-12T06:25:03,42.805,6.029,0.002,0.005,-0.014,99.0,107.0,99.0,13.4,1505.2,327.1,-0.7,1.8,2470.474,13.29,0.005,21.8
2021-07-12T06:28:03,42.805,6.029,0.01,-0.018,-0.002,101.0,101.0,99.0,13.4,1505.2,326.1,-0.8,1.8,2470.467,13.29,0.02,150.9
2021-07-12T06:31:03,42.805,6.029,-0.01,0.006,-0.005,101.0,99.0,100.0,13.4,1505.2,325.9,-0.8,1.8,2470.469,13.29,0.011,301.0
2021-07-12T06:34:03,42.805,6.029,-0.011,0.003,-0.008,101.0,101.0,100.0,13.4,1505.2,327.8,-0.8,1.8,2470.465,13.29,0.011,285.3
2021-07-12T06:37:03,42.805,6.029,-0.013,-0.001,-0.032,100.0,101.0,100.0,13.3,1505.2,330.0,-0.7,1.8,2470.449,13.29,0.013,265.6
2021-07-12T06:40:03,42.805,6.029,-0.028,0.0,-0.019,100.0,106.0,97.0,13.4,1505.2,326.7,-0.8,1.8,2470.527,13.29,0.028,270.0
2021-07-12T06:43:03,42.805,6.029,-0.003,0.001,0.017,100.0,101.0,100.0,13.3,1505.2,329.4,-0.7,1.8,2470.443,13.29,0.003,288.4
2021-07-12T06:46:03,42.805,6.029,-0.004,-0.022,-0.042,101.0,101.0,99.0,13.4,1505.2,326.5,-0.8,1.8,2470.491,13.29,0.022,190.3
2021-07-12T06:49:03,42.805,6.029,-0.01,-0.009,-0.021,101.0,104.0,99.0,13.3,1505.2,326.9,-0.8,1.8,2470.507,13.29,0.013,228.0
2021-07-12T06:52:03,42.805,6.029,0.014,-0.007,-0.028,102.0,103.0,100.0,13.4,1505.2,329.5,-0.8,1.8,2470.542,13.29,0.015,116.6
2021-07-12T06:55:03,42.805,6.029,-0.019,-0.007,-0.023,101.0,101.0,99.0,13.4,1505.2,327.0,-0.8,1.8,2470.493,13.29,0.02,249.8
2021-07-12T06:58:03,42.805,6.029,-0.021,0.023,0.027,99.0,101.0,100.0,13.4,1505.2,328.7,-0.7,1.8,2470.489,13.29,0.031,317.6
2021-07-12T07:04:03,42.805,6.029,0.001,-0.022,-0.021,101.0,102.0,100.0,13.4,1505.2,327.1,-0.8,1.8,2470.551,13.29,0.022,177.4
2021-07-12T07:07:03,42.805,6.029,0.011,0.007,0.009,102.0,101.0,99.0,13.4,1505.2,327.3,-0.7,1.8,2470.558,13.29,0.013,57.5
2021-07-12T07:10:03,42.805,6.029,-0.01,-0.008,-0.028,101.0,101.0,101.0,13.3,1505.2,328.0,-0.7,1.9,2470.514,13.29,0.012,231.3
2021-07-12T07:13:03,42.805,6.029,-0.019,-0.007,-0.014,100.0,100.0,99.0,13.4,1505.2,325.8,-0.7,1.8,2470.485,13.29,0.02,249.8
2021-07-12T07:16:03,42.805,6.029,-0.026,-0.005,0.01,102.0,99.0,100.0,13.3,1505.2,328.0,-0.8,1.9,2470.528,13.29,0.026,259.1
2021-07-12T07:19:03,42.805,6.029,-0.013,-0.01,-0.038,100.0,100.0,101.0,13.4,1505.2,326.9,-0.7,1.8,2470.5,13.29,0.016,232.4
2021-07-12T07:22:03,42.805,6.029,0.005,-0.027,-0.065,102.0,100.0,100.0,13.4,1505.2,326.5,-0.8,1.9,2470.511,13.29,0.027,169.5
2021-07-12T07:25:03,42.805,6.029,-0.03,-0.009,-0.052,99.0,103.0,101.0,13.4,1505.2,328.3,-0.8,1.8,2470.498,13.29,0.031,253.3
2021-07-12T07:28:03,42.805,6.029,0.01,-0.003,0.003,101.0,101.0,100.0,13.4,1505.2,328.8,-0.7,1.8,2470.565,13.29,0.01,106.7
2021-07-12T07:31:03,42.805,6.029,0.021,-0.001,-0.005,100.0,100.0,100.0,13.3,1505.2,328.2,-0.8,1.8,2470.525,13.29,0.021,92.7
2021-07-12T07:34:03,42.805,6.029,-0.011,-0.006,0.02,101.0,101.0,99.0,13.4,1505.2,329.8,-0.8,1.8,2470.509,13.29,0.012,241.4
2021-07-12T07:37:03,42.805,6.029,-0.021,-0.007,-0.022,100.0,103.0,100.0,13.4,1505.2,325.5,-0.8,1.8,2470.534,13.29,0.022,251.6
2021-07-12T07:40:03,42.805,6.029,0.001,-0.01,0.0,100.0,101.0,100.0,13.3,1505.2,327.1,-0.8,1.8,2470.523,13.29,0.01,174.3
2021-07-12T07:43:03,42.805,6.029,0.002,-0.012,-0.005,101.0,101.0,100.0,13.3,1505.2,327.7,-0.8,1.8,2470.548,13.29,0.012,170.5
2021-07-12T07:46:03,42.805,6.029,-0.005,0.009,-0.01,101.0,101.0,100.0,13.3,1505.2,325.0,-0.8,1.8,2470.493,13.29,0.01,330.9
2021-07-12T07:49:03,42.805,6.029,0.002,-0.007,-0.022,104.0,102.0,100.0,13.3,1505.2,328.1,-0.8,1.8,2470.52,13.29,0.007,164.1
2021-07-12T07:52:03,42.805,6.029,-0.005,-0.005,-0.012,102.0,101.0,100.0,13.4,1505.2,328.5,-0.7,1.8,2470.512,13.29,0.007,225.0
2021-07-12T07:55:03,42.805,6.029,-0.007,0.002,-0.02,106.0,102.0,100.0,13.4,1505.2,330.1,-0.8,1.8,2470.549,13.29,0.007,285.9
2021-07-12T07:58:03,42.805,6.029,0.019,0.004,0.019,100.0,102.0,100.0,13.4,1505.2,327.8,-0.8,1.8,2470.557,13.29,0.019,78.1
2021-07-12T08:04:03,42.805,6.029,-0.001,-0.008,-0.023,101.0,101.0,101.0,13.4,1505.2,328.6,-0.7,1.8,2470.595,13.29,0.008,187.1
2021-07-12T08:07:03,42.805,6.029,0.0,0.006,-0.016,100.0,101.0,102.0,13.4,1505.2,328.7,-0.8,1.9,2470.528,13.29,0.006,0.0
2021-07-12T08:10:03,42.805,6.029,0.001,0.001,0.001,100.0,101.0,100.0,13.4,1505.2,327.9,-0.8,1.8,2470.553,13.29,0.001,45.0
2021-07-12T08:13:03,42.805,6.029,0.003,-0.01,0.0,101.0,104.0,99.0,13.4,1505.2,329.6,-0.7,1.8,2470.534,13.29,0.01,163.3
2021-07-12T08:16:03,42.805,6.029,-0.023,0.01,-0.016,100.0,102.0,100.0,13.3,1505.2,329.6,-0.8,1.8,2470.567,13.29,0.025,293.5
2021-07-12T08:19:03,42.805,6.029,0.002,-0.013,0.002,99.0,102.0,100.0,13.4,1505.2,330.3,-0.7,1.8,2470.557,13.29,0.013,171.3
2021-07-12T08:22:03,42.805,6.029,-0.016,0.004,0.0,102.0,101.0,99.0,13.3,1505.2,329.2,-0.7,1.8,2470.529,13.29,0.016,284.0
2021-07-12T08:25:03,42.805,6.029,-0.027,0.003,0.017,100.0,102.0,100.0,13.4,1505.2,327.4,-0.8,1.8,2470.53,13.29,0.027,276.3
2021-07-12T08:28:03,42.805,6.029,-0.002,0.005,-0.026,101.0,102.0,100.0,13.4,1505.2,328.3,-0.8,1.8,2470.507,13.29,0.005,338.2
2021-07-12T08:31:03,42.805,6.029,-0.001,-0.004,0.03,103.0,101.0,99.0,13.4,1505.2,326.7,-0.7,1.9,2470.523,13.29,0.004,194.0
2021-07-12T08:34:03,42.805,6.029,-0.006,-0.012,-0.022,99.0,100.0,102.0,13.4,1505.2,326.9,-0.7,1.8,2470.491,13.29,0.013,206.6
2021-07-12T08:37:03,42.805,6.029,-0.035,0.033,0.005,101.0,100.0,101.0,13.4,1505.2,328.9,-0.8,1.8,2470.536,13.29,0.048,313.3
2021-07-12T08:40:03,42.805,6.029,-0.017,0.012,-0.013,102.0,102.0,100.0,13.3,1505.2,329.9,-0.8,1.8,2470.518,13.29,0.02,305.2
2021-07-12T08:43:03,42.805,6.029,-0.007,0.004,-0.016,100.0,102.0,100.0,13.4,1505.2,325.9,-0.8,1.8,2470.513,13.29,0.008,299.7
2021-07-12T08:46:03,42.805,6.029,0.013,-0.014,-0.021,98.0,103.0,101.0,13.4,1505.2,326.0,-0.8,1.8,2470.534,13.29,0.019,137.1
2021-07-12T08:49:03,42.805,6.029,-0.01,-0.003,-0.006,100.0,102.0,101.0,13.3,1505.2,329.4,-0.7,1.9,2470.558,13.29,0.01,253.3
2021-07-12T08:52:03,42.805,6.029,-0.004,-0.007,-0.034,101.0,102.0,100.0,13.4,1505.2,330.6,-0.8,1.8,2470.52,13.29,0.008,209.7
2021-07-12T08:55:03,42.805,6.029,-0.026,0.012,0.014,100.0,102.0,100.0,13.4,1505.2,328.4,-0.8,1.8,2470.583,13.29,0.028,294.8
2021-07-12T08:58:03,42.805,6.029,-0.013,-0.001,-0.009,103.0,101.0,99.0,13.4,1505.2,327.6,-0.7,1.8,2470.51,13.29,0.013,265.6
2021-07-12T09:04:03,42.805,6.029,0.001,-0.008,-0.016,101.0,100.0,100.0,13.4,1505.2,328.5,-0.8,1.8,2470.534,13.28,0.008,172.9
2021-07-12T09:07:03,42.805,6.029,-0.008,0.0,0.003,100.0,100.0,99.0,13.4,1505.2,328.2,-0.8,1.8,2470.559,13.29,0.008,270.0
2021-07-12T09:10:03,42.805,6.029,0.022,-0.033,-0.021,100.0,100.0,101.0,13.4,1505.2,325.2,-0.7,1.8,2470.566,13.29,0.039,146.3
2021-07-12T09:13:03,42.805,6.029,-0.007,0.015,0.02,102.0,100.0,100.0,13.4,1505.2,329.6,-0.7,1.8,2470.559,13.29,0.016,335.0
2021-07-12T09:16:03,42.805,6.029,-0.004,0.001,-0.006,101.0,104.0,98.0,13.4,1505.2,327.3,-0.8,1.8,2470.574,13.29,0.004,284.0
2021-07-12T09:19:03,42.805,6.029,-0.026,-0.001,-0.022,104.0,101.0,102.0,13.3,1505.2,328.8,-0.7,1.8,2470.53,13.29,0.026,267.8
2021-07-12T09:22:03,42.805,6.029,-0.011,0.014,-0.004,102.0,102.0,101.0,13.4,1505.2,328.8,-0.7,1.8,2470.538,13.29,0.017,321.8
2021-07-12T09:25:03,42.805,6.029,-0.018,-0.003,-0.056,100.0,101.0,100.0,13.4,1505.2,328.9,-0.8,1.8,2470.537,13.29,0.018,260.5
2021-07-12T09:28:03,42.805,6.029,0.0,0.01,0.01,102.0,102.0,99.0,13.4,1505.2,329.9,-0.7,1.9,2470.542,13.29,0.01,0.0
2021-07-12T09:31:03,42.805,6.029,-0.009,-0.002,-0.018,100.0,100.0,100.0,13.4,1505.2,327.7,-0.8,1.8,2470.501,13.29,0.009,257.5
2021-07-12T09:34:03,42.805,6.029,0.006,-0.003,-0.035,101.0,101.0,99.0,13.4,1505.2,328.2,-0.7,1.8,2470.538,13.29,0.006,116.6
2021-07-12T09:37:03,42.805,6.029,0.001,-0.013,-0.016,100.0,100.0,100.0,13.4,1505.2,328.8,-0.8,1.8,2470.552,13.29,0.013,175.6
2021-07-12T09:40:03,42.805,6.029,-0.002,-0.013,0.011,102.0,102.0,99.0,13.4,1505.2,326.2,-0.8,1.8,2470.517,13.29,0.013,188.7
2021-07-12T09:43:03,42.805,6.029,0.0,-0.014,-0.017,101.0,102.0,100.0,13.4,1505.2,328.0,-0.8,1.8,2470.488,13.29,0.014,180.0
2021-07-12T09:46:03,42.805,6.029,0.006,-0.016,-0.035,100.0,102.0,101.0,13.4,1505.2,326.0,-0.8,1.8,2470.478,13.29,0.017,159.4
2021-07-12T09:49:03,42.805,6.029,-0.017,-0.011,-0.033,102.0,101.0,100.0,13.4,1505.2,328.4,-0.8,1.8,2470.516,13.29,0.02,237.1
2021-07-12T09:52:03,42.805,6.029,-0.008,0.003,0.003,102.0,101.0,102.0,13.3,1505.2,326.2,-0.7,1.8,2470.529,13.29,0.008,290.6
2021-07-12T09:55:03,42.805,6.029,0.0,0.013,0.014,100.0,102.0,99.0,13.4,1505.2,325.5,-0.7,1.8,2470.512,13.29,0.013,0.0
2021-07-12T09:58:03,42.805,6.029,-0.023,-0.006,-0.033,101.0,100.0,100.0,13.4,1505.2,329.0,-0.8,1.8,2470.481,13.29,0.023,255.4